ITUPSAT1

Last updated on Mon Feb 10 2025 00:03:04 GMT+0000 (Coordinated Universal Time)

1 35935U 09051E 25040.63540162 .00001898 00000+0 41368-3 0 9998 2 35935 98.4474 294.7733 0007195 334.6619 25.4226 14.59093157816877
UTC large
Height (km)
Speed (km/s)
/
Latitude / Longitude
Inclination (degrees)
Orbital Period (minutes)
Azimuth
Elevation
Range (km)
Doppler Factor

Next 0 passes for location: London (51.5072 / 0.1276)

Sorry there are no passes over London.